DW6758 Weather Reports


time (UTC)temp
F
wind
direction
speed
knots
gust
knots
rain 1hr
in
rain 24hr
in
rain mn
in
humidity
%
barometer
mb
20240614133009 85 278 0.0 0.0 0.00 0.00 0.00 55 1014.4
20240614131510 84 300 0.0 0.0 0.00 0.00 0.00 55 1014.7
20240614130009 82 149 0.0 0.0 0.00 0.00 0.00 54 1014.7
20240614124503 81 293 0.0 0.0 0.00 0.00 0.00 52 1014.8
20240614123107 78 295 0.0 0.0 0.00 0.00 0.00 44 1014.7
20240614121558 75 304 0.0 0.0 0.00 0.00 0.00 38 1014.6
20240614120052 74 304 0.0 0.0 0.00 0.00 0.00 27 1014.4
20240614114550 0 0.0 0.0 0.00 0.00 0.00 1014.3
20240614113051 0 0.0 0.0 0.00 0.00 0.00 1014.3
20240614111606 0 0.0 0.0 0.00 0.00 0.00 1014.2
20240614110039 0 0.0 0.0 0.00 0.00 0.00 1014.3
20240614104532 0 0.0 0.0 0.00 0.00 0.00 1014.1
20240614103031 0 0.0 0.0 0.00 0.00 0.00 1013.8
20240614101524 0 0.0 0.0 0.00 0.00 0.00 1013.9
20240614100030 0 0.0 0.0 0.00 0.00 0.00 1013.7
20240614094516 69 306 0.0 0.0 0.00 0.00 0.00 32 1013.7
20240614093016 71 311 0.0 0.0 0.00 0.00 0.00 34 1013.6
20240614091513 71 311 0.0 0.0 0.00 0.00 0.00 36 1013.5
20240614090009 72 311 0.0 0.0 0.00 0.00 0.00 39 1013.3
20240614084507 72 311 0.0 0.0 0.00 0.00 0.00 43 1013.2
20240614083015 73 311 0.0 0.0 0.00 0.00 0.00 45 1013.3
20240614081500 74 310 0.0 0.0 0.00 0.00 0.00 45 1013.0
20240614080057 76 290 0.0 0.0 0.00 0.00 0.00 36 1013.2
20240614074557 76 146 0.0 0.0 0.00 0.00 0.00 35 1013.1
20240614073056 76 215 0.0 0.0 0.00 0.00 0.00 36 1013.1
20240614071556 76 150 0.0 0.0 0.00 0.00 0.00 37 1013.0
20240614070103 77 150 0.0 0.0 0.00 0.00 0.00 38 1013.1
20240614064554 77 139 0.0 1.7 0.00 0.00 0.00 40 1013.0
20240614063049 77 129 0.0 1.7 0.00 0.00 0.00 43 1013.0
20240614061549 77 211 0.0 1.7 0.00 0.00 0.00 44 1013.2
20240614060045 77 226 0.0 0.0 0.00 0.00 0.00 46 1013.2
20240614054543 77 167 0.0 0.0 0.00 0.00 0.00 48 1013.3
20240614053042 77 160 0.0 0.0 0.00 0.00 0.00 52 1013.4
20240614051544 77 148 0.0 0.0 0.00 0.00 0.00 53 1013.5
20240614050038 77 105 0.0 0.9 0.00 0.00 0.00 54 1013.7
20240614044541 77 127 0.0 0.0 0.00 0.00 0.00 55 1013.8
20240614043035 77 96 0.0 1.7 0.00 0.00 0.00 56 1014.0
20240614041539 77 13 0.0 0.0 0.00 0.00 0.00 57 1014.2
20240614040030 77 114 0.0 4.3 0.00 0.00 0.00 57 1014.4
20240614034530 77 105 0.0 3.5 0.00 0.00 0.00 58 1014.1
20240614033029 77 86 0.0 1.7 0.00 0.00 0.00 59 1014.2
20240614031532 77 184 0.0 3.5 0.00 0.00 0.00 59 1014.3
20240614030029 77 238 0.0 0.9 0.00 0.00 0.00 59 1014.3
20240614024527 77 196 0.0 1.7 0.00 0.00 0.00 59 1014.2
20240614023027 77 298 0.0 2.6 0.00 0.00 0.00 59 1014.4
20240614021527 78 213 0.0 0.0 0.00 0.00 0.00 60 1014.6
20240614020026 78 135 0.0 0.9 0.00 0.00 0.00 61 1014.5
20240614014534 78 210 0.0 2.6 0.00 0.00 0.00 61 1014.6
20240614013025 78 162 0.0 2.6 0.00 0.00 0.00 61 1014.8
20240614011524 79 129 0.0 3.5 0.00 0.00 0.00 61 1014.8
20240614010024 79 129 0.0 1.7 0.00 0.00 0.00 62 1015.1
20240614004538 79 258 0.0 0.0 0.00 0.00 0.00 61 1015.2
20240614003022 79 123 0.0 0.0 0.00 0.00 0.00 61 1015.3
20240614001523 79 309 0.0 3.5 0.00 0.00 0.00 61 1015.4
20240614000029 79 226 0.0 0.0 0.00 0.00 0.00 61 1015.4
20240613234521 79 108 0.0 3.5 0.00 0.00 0.00 61 1015.3
20240613233022 79 38 0.0 0.0 0.00 0.00 0.00 61 1015.2
20240613231520 79 116 0.0 3.5 0.00 0.00 0.00 62 1015.3
20240613230038 80 297 0.0 2.6 0.00 0.00 0.00 62 1015.1
20240613224518 80 94 0.0 4.3 0.00 0.00 0.00 62 1015.1
20240613223017 80 131 0.0 4.3 0.00 0.00 0.00 61 1014.8
20240613221517 81 270 0.0 4.3 0.00 0.00 0.00 61 1014.8
20240613220017 81 145 0.0 5.2 0.00 0.00 0.00 61 1014.8
20240613214515 81 109 0.0 5.2 0.00 0.00 0.00 61 1014.9
20240613213014 81 129 0.0 1.7 0.00 0.00 0.00 61 1015.0
20240613211514 82 91 0.0 6.1 0.00 0.00 0.00 60 1015.0
20240613210026 83 150 0.0 3.5 0.00 0.00 0.00 60 1015.1
20240613204512 82 135 0.0 3.5 0.00 0.00 0.00 60 1015.3
20240613203011 82 153 0.0 3.5 0.00 0.00 0.00 60 1015.3
20240613201510 83 162 0.0 7.0 0.00 0.00 0.00 60 1015.3
20240613200012 83 153 0.0 5.2 0.00 0.00 0.00 60 1015.4
20240613194509 84 307 0.0 11.3 0.00 0.00 0.00 59 1015.4
20240613193008 84 108 0.0 0.0 0.00 0.00 0.00 59 1015.5
20240613191511 85 138 0.0 3.5 0.00 0.00 0.00 58 1015.6
20240613190008 85 266 0.0 8.7 0.00 0.00 0.00 57 1015.6
20240613184506 86 56 0.9 5.2 0.00 0.00 0.00 56 1015.6
20240613183004 86 112 0.0 5.2 0.00 0.00 0.00 56 1015.8
20240613181504 86 191 0.0 7.8 0.00 0.00 0.00 56 1015.8
20240613180003 86 82 0.0 7.0 0.00 0.00 0.00 56 1016.0
20240613174606 86 150 0.0 6.1 0.00 0.00 0.00 56 1016.1
20240613173006 86 330 0.9 5.2 0.00 0.00 0.00 55 1016.1
20240613171502 88 88 0.9 6.1 0.00 0.00 0.00 53 1016.0
20240613170100 87 188 0.0 7.0 0.00 0.00 0.00 55 1015.9
20240613170000 87 33 0.0 7.0 0.00 0.00 0.00 55 1015.8
20240613164658 87 105 0.0 6.1 0.00 0.00 0.00 55 1016.0
20240613163059 87 115 0.0 7.8 0.00 0.00 0.00 56 1015.9
20240613161558 87 194 0.0 5.2 0.00 0.00 0.00 55 1016.2
20240613160056 86 302 0.0 6.1 0.00 0.00 0.00 56 1016.0
20240613154555 86 155 0.0 4.3 0.00 0.00 0.00 55 1016.0
20240613153122 87 358 0.0 3.5 0.00 0.00 0.00 55 1016.0
20240613151552 86 129 0.0 3.5 0.00 0.00 0.00 56 1016.0
20240613150051 85 203 0.0 7.0 0.00 0.00 0.00 54 1016.1
20240613144600 85 124 0.0 2.6 0.00 0.00 0.00 55 1016.1
20240613143058 83 103 0.9 5.2 0.00 0.00 0.00 56 1016.0
20240613141543 82 99 0.0 1.7 0.00 0.00 0.00 55 1015.9
20240613140039 80 165 0.0 3.5 0.00 0.00 0.00 54 1015.9
20240613134543 80 296 0.0 2.6 0.00 0.00 0.00 53 1016.0